Weather History for Atlanta Dekalb, GA

Change the Weather History Date:

Tuesday, August 28, 2012

  Actual Average Record
Temperature  
Mean Temperature 74 °F 78 °F  
Max Temperature 77 °F 87 °F 95 °F (1998)
Min Temperature 73 °F 69 °F 63 °F (2014)
Cooling Degree Days 9 13  
Month to date cooling degree days 398  
Year to date cooling degree days 1421  
Since 1 June cooling degree days 1210  
Growing Degree Days 24 (Base 50)    
Moisture  
Dew Point 72 °F    
Average Humidity 95    
Maximum Humidity 100    
Minimum Humidity 87    
Precipitation  
Precipitation 0.53 in 0.10 in 0.53 in (2012)
Month to date precipitation 4.01  
Year to date precipitation 36.28  
Sea Level Pressure  
Sea Level Pressure 29.98 in    
Wind  
Wind Speed 3 mph (ENE)    
Max Wind Speed 7 mph    
Max Gust Speed -    
Visibility 7 miles    
Events Rain    
T = Trace of Precipitation, MM = Missing Value Source: NWS Daily Summary

Daily Weather History Graph

Daily Weather History Graph

Search for Another Location

Airport:

Trip Planner

Search our weather history database for the weather conditions in past years. The results will help you decide how hot, cold, wet, or windy it might be!

Date:

Astronomy

Aug. 28, 2012 Rise Set
Actual Time 7:08 AM EDT 8:07 PM EDT
Civil Twilight 6:42 AM EDT 8:33 PM EDT
Nautical Twilight 6:12 AM EDT 9:03 PM EDT
Astronomical Twilight 5:41 AM EDT 9:34 PM EDT
Moon 6:05 PM EDT (8/28) 4:02 AM EDT (8/28)
Length of Visible Light 13h 50m
Length of Day
12h 58m
Waxing Gibbous, 90% of the Moon is Illuminated
Aug 28
Waxing Gibbous
Aug 31
Full
Sep 8
Last Quarter
Sep 15
New
Sep 22
First Quarter

Hourly Weather History & Observations

Time (EDT) Temp. Dew Point Humidity Pressure Visibility Wind Dir Wind Speed Gust Speed Precip Events Conditions
12:53 AM 73.9 °F 72.0 °F 93% 29.97 in 10.0 mi Calm Calm - N/A   Mostly Cloudy
1:53 AM 73.9 °F 71.1 °F 91% 29.96 in 10.0 mi East 3.5 mph - N/A   Partly Cloudy
2:53 AM 73.9 °F 70.0 °F 87% 29.94 in 10.0 mi East 4.6 mph - N/A   Mostly Cloudy
3:53 AM 73.9 °F 71.1 °F 91% 29.94 in 10.0 mi Variable 4.6 mph - N/A   Mostly Cloudy
4:41 AM 73.4 °F 71.6 °F 94% 30.00 in 10.0 mi Variable 4.6 mph - N/A   Overcast
4:49 AM 73.4 °F 71.6 °F 94% 30.00 in 10.0 mi ENE 5.8 mph - N/A   Overcast
4:53 AM 73.0 °F 71.1 °F 93% 29.94 in 10.0 mi Variable 5.8 mph - N/A   Overcast
5:32 AM 73.4 °F 71.6 °F 94% 30.00 in 10.0 mi Calm Calm - N/A   Overcast
5:53 AM 73.0 °F 71.1 °F 93% 29.94 in 10.0 mi East 4.6 mph - N/A   Overcast
6:53 AM 73.0 °F 71.1 °F 93% 29.95 in 8.0 mi East 4.6 mph - 0.00 in Rain Light Rain
7:42 AM 73.4 °F 71.6 °F 94% 30.02 in 8.0 mi East 5.8 mph - 0.00 in   Overcast
7:53 AM 73.0 °F 71.1 °F 93% 29.97 in 8.0 mi ENE 6.9 mph - 0.00 in   Overcast
8:53 AM 73.9 °F 71.1 °F 91% 29.96 in 9.0 mi Variable 5.8 mph - N/A   Overcast
9:53 AM 75.0 °F 72.0 °F 90% 29.97 in 10.0 mi Variable 4.6 mph - N/A   Overcast
10:24 AM 73.4 °F 71.6 °F 94% 30.02 in 3.0 mi East 5.8 mph - N/A Rain Light Rain
10:53 AM 73.4 °F 73.4 °F 100% 30.03 in 4.0 mi Calm Calm - N/A Rain Light Rain
11:02 AM 73.4 °F 73.4 °F 100% 30.03 in 4.0 mi Variable 3.5 mph - 0.01 in Rain Light Rain
11:11 AM 73.4 °F 73.4 °F 100% 30.03 in 5.0 mi East 5.8 mph - 0.01 in Rain Light Rain
11:53 AM 73.9 °F 73.0 °F 97% 29.99 in 2.5 mi ENE 5.8 mph - 0.05 in Rain Rain
12:53 PM 73.4 °F 73.4 °F 100% 30.03 in 2.5 mi East 3.5 mph - N/A Rain Light Rain
12:55 PM 73.4 °F 73.4 °F 100% 30.03 in 3.0 mi East 3.5 mph - 0.01 in Rain Light Rain
1:02 PM 73.4 °F 73.4 °F 100% 30.03 in 3.0 mi ENE 5.8 mph - 0.03 in Rain Rain
1:06 PM 73.4 °F 73.4 °F 100% 30.03 in 2.5 mi Calm Calm - 0.04 in Rain Rain
1:13 PM 73.4 °F 73.4 °F 100% 30.03 in 2.0 mi ENE 3.5 mph - 0.07 in Rain Heavy Rain
1:48 PM 73.4 °F 73.4 °F 100% 30.02 in 3.0 mi Calm Calm - 0.18 in Rain Rain
1:53 PM 73.9 °F 73.0 °F 97% 29.98 in 3.0 mi NNE 4.6 mph - 0.18 in Rain Light Rain
2:00 PM 75.2 °F 73.4 °F 94% 30.02 in 3.0 mi Calm Calm - 0.02 in Rain Rain
2:14 PM 73.4 °F 73.4 °F 100% 30.02 in 3.0 mi Calm Calm - 0.05 in Rain Rain
2:23 PM 73.4 °F 73.4 °F 100% 30.02 in 1.8 mi East 3.5 mph - 0.11 in Rain Heavy Rain
2:53 PM 73.9 °F 73.0 °F 97% 29.97 in 2.0 mi NNE 3.5 mph - 0.26 in Rain Rain
2:59 PM 73.4 °F 73.4 °F 100% 30.01 in 3.0 mi Calm Calm - 0.00 in Rain Light Rain
3:53 PM 75.0 °F 73.0 °F 94% 29.94 in 9.0 mi Variable 3.5 mph - 0.04 in Rain Light Rain
4:53 PM 75.9 °F 73.9 °F 94% 29.93 in 10.0 mi NNE 3.5 mph - 0.00 in   Overcast
5:09 PM 75.2 °F 73.4 °F 94% 29.98 in 10.0 mi Calm Calm - N/A   Overcast
5:22 PM 75.2 °F 73.4 °F 94% 29.98 in 10.0 mi NE 5.8 mph - N/A   Mostly Cloudy
5:32 PM 75.2 °F 73.4 °F 94% 29.98 in 10.0 mi ENE 4.6 mph - N/A   Mostly Cloudy
5:43 PM 75.2 °F 73.4 °F 94% 29.98 in 10.0 mi Calm Calm - N/A   Mostly Cloudy
5:53 PM 75.9 °F 73.0 °F 91% 29.94 in 10.0 mi NNE 4.6 mph - N/A   Mostly Cloudy
6:53 PM 75.0 °F 73.0 °F 94% 29.93 in 10.0 mi Variable 5.8 mph - N/A   Mostly Cloudy
7:53 PM 75.0 °F 72.0 °F 90% 29.93 in 10.0 mi ENE 4.6 mph - N/A   Overcast
8:01 PM 75.2 °F 71.6 °F 89% 29.97 in 10.0 mi Calm Calm - N/A   Overcast
8:53 PM 73.9 °F 72.0 °F 93% 29.94 in 10.0 mi Calm Calm - N/A   Overcast
9:53 PM 73.9 °F 72.0 °F 93% 29.97 in 10.0 mi East 3.5 mph - N/A   Overcast
10:38 PM 73.4 °F 71.6 °F 94% 30.01 in 10.0 mi East 3.5 mph - N/A   Overcast
10:46 PM 73.4 °F 71.6 °F 94% 30.01 in 10.0 mi Calm Calm - N/A   Overcast
10:53 PM 73.9 °F 72.0 °F 93% 29.96 in 10.0 mi ENE 3.5 mph - N/A   Overcast
11:07 PM 73.4 °F 71.6 °F 94% 29.99 in 10.0 mi ENE 3.5 mph - N/A   Overcast
11:42 PM 73.4 °F 71.6 °F 94% 29.99 in 10.0 mi Calm Calm - N/A   Overcast
11:53 PM 73.9 °F 72.0 °F 93% 29.95 in 10.0 mi Variable 3.5 mph - N/A   Overcast